AV279 Weather Reports


Display with metric or nautical units.
time (UTC)temp
F
wind
direction
speed
MPH
gust
MPH
rain 1hr
in
rain 24hr
in
rain mn
in
humidity
%
barometer
mb
20260505183030 54 0 5.0 9.0 0.00 0.00 0.00 76 1009.5
20260505182019 54 0 6.0 11.0 0.00 0.00 0.00 75 1009.6
20260505181019 54 45 9.0 17.0 0.00 0.00 0.00 76 1009.5
20260505180019 54 45 10.0 15.0 0.00 0.00 0.00 76 1009.5
20260505175051 54 23 3.0 10.0 0.00 0.00 0.00 76 1009.5
20260505174019 54 23 6.0 12.0 0.00 0.00 0.00 76 1009.6
20260505173019 55 0 7.0 11.0 0.00 0.00 0.00 76 1009.4
20260505172019 55 23 12.0 19.0 0.00 0.00 0.00 77 1009.3
20260505171051 55 23 4.0 6.0 0.00 0.00 0.00 77 1009.2
20260505170030 55 23 8.0 12.0 0.00 0.00 0.00 77 1009.3
20260505165029 55 23 7.0 13.0 0.00 0.00 0.00 77 1009.3
20260505164019 55 45 6.0 11.0 0.00 0.00 0.00 77 1009.4
20260505163019 55 23 8.0 14.0 0.00 0.00 0.00 77 1009.3
20260505162019 55 45 12.0 17.0 0.00 0.00 0.00 75 1009.2
20260505161030 56 23 6.0 15.0 0.00 0.00 0.00 74 1009.3
20260505153049 57 45 8.0 12.0 0.00 0.00 0.00 74 1009.5
20260505152029 57 315 2.0 3.0 0.00 0.00 0.00 74 1009.4
20260505151019 57 23 6.0 11.0 0.00 0.00 0.00 73 1009.5
20260505130219 60 0 7.0 11.0 0.00 0.00 0.00 69 1010.2
20260505124230 60 23 7.0 15.0 0.00 0.00 0.00 70 1009.9
20260505123218 59 23 11.0 19.0 0.00 0.00 0.00 70 1010.1
20260505122219 58 23 6.0 17.0 0.00 0.00 0.00 72 1010.1
20260505121218 57 23 6.0 9.0 0.00 0.00 0.00 72 1010.2
20260505120251 57 338 9.0 17.0 0.00 0.00 0.00 72 1010.1
20260505115219 58 45 6.0 10.0 0.00 0.00 0.00 71 1010.3
20260505114218 58 23 7.0 12.0 0.00 0.00 0.00 71 1010.2
20260505113219 59 0 11.0 16.0 0.00 0.00 0.00 70 1010.2
20260505112238 58 45 6.0 15.0 0.00 0.00 0.00 69 1010.2
20260505111219 59 68 5.0 9.0 0.00 0.00 0.00 67 1010.2
20260505110229 59 23 11.0 16.0 0.00 0.00 0.00 69 1010.4
20260505101249 59 23 11.0 18.0 0.00 0.00 0.00 70 1010.5
20260505100258 59 23 7.0 16.0 0.00 0.00 0.00 69 1010.5
20260505095231 57 0 9.0 13.0 0.00 0.00 0.00 71 1010.7
20260505094249 56 45 3.0 5.0 0.00 0.00 0.00 73 1010.6
20260505093218 57 45 8.0 13.0 0.00 0.00 0.00 73 1010.7
20260505092331 57 45 8.0 15.0 0.00 0.00 0.00 71 1010.7
20260505091238 57 23 6.0 11.0 0.00 0.00 0.00 72 1010.7
20260505090218 57 45 7.0 15.0 0.00 0.00 0.00 72 1010.8
20260505085437 57 45 6.0 14.0 0.00 0.00 0.00 73 1010.8
20260505084619 56 0 7.0 12.0 0.00 0.00 0.00 74 1010.8
20260505083618 55 45 5.0 10.0 0.00 0.00 0.00 75 1010.8
20260505082631 55 45 8.0 12.0 0.00 0.00 0.00 77 1010.9
20260505081828 55 23 3.0 5.0 0.00 0.00 0.00 76 1010.9
20260505080638 55 0 8.0 13.0 0.00 0.00 0.00 76 1011.0
20260505075620 54 0 6.0 10.0 0.00 0.00 0.00 78 1011.2
20260505074618 54 23 6.0 9.0 0.00 0.00 0.00 78 1011.2
20260505073620 54 45 2.0 4.0 0.00 0.00 0.00 79 1011.3
20260505072620 54 0 7.0 10.0 0.00 0.00 0.00 79 1011.2
20260505071631 54 23 6.0 11.0 0.00 0.00 0.00 79 1011.2
20260505070620 54 23 6.0 13.0 0.00 0.00 0.00 79 1011.1
20260505065650 54 23 11.0 14.0 0.00 0.00 0.00 79 1011.1
20260505064630 54 338 4.0 7.0 0.00 0.00 0.00 79 1011.3
20260505063652 53 23 4.0 9.0 0.00 0.00 0.00 80 1011.3
20260505062700 53 23 6.0 12.0 0.00 0.00 0.00 80 1011.2
20260505061638 53 23 6.0 12.0 0.00 0.00 0.00 81 1011.1
20260505060631 53 45 4.0 7.0 0.00 0.00 0.00 82 1011.1
20260505055631 52 0 7.0 12.0 0.00 0.00 0.00 83 1011.1
20260505054631 52 0 6.0 10.0 0.00 0.00 0.00 85 1011.1
20260505053620 52 45 1.0 3.0 0.00 0.00 0.00 85 1011.1
20260505052630 52 45 4.0 7.0 0.00 0.00 0.00 85 1011.1
20260505051631 52 0 4.0 6.0 0.00 0.00 0.00 85 1011.3
20260505050652 52 45 3.0 7.0 0.00 0.00 0.00 85 1011.5
20260505041631 52 0 7.0 10.0 0.00 0.00 0.00 86 1011.5
20260505040650 52 23 5.0 9.0 0.00 0.00 0.00 86 1011.5
20260505035620 52 23 2.0 4.0 0.00 0.00 0.00 86 1011.7
20260505034620 52 23 3.0 7.0 0.00 0.00 0.00 86 1011.7
20260505033620 52 45 2.0 3.0 0.00 0.00 0.00 86 1011.9
20260505032630 52 23 2.0 3.0 0.00 0.00 0.00 86 1011.8
20260505031630 52 113 2.0 4.0 0.00 0.00 0.00 85 1011.9
20260505030620 52 23 3.0 5.0 0.00 0.00 0.00 86 1011.9
20260505025619 52 0 4.0 8.0 0.00 0.00 0.00 86 1012.0
20260505024619 52 0 5.0 10.0 0.00 0.00 0.00 86 1012.1
20260505023619 52 23 4.0 7.0 0.00 0.00 0.00 86 1012.1
20260505022650 52 0 5.0 11.0 0.00 0.00 0.00 87 1012.0
20260505021619 53 45 5.0 9.0 0.00 0.00 0.00 87 1011.9
20260505020642 53 23 8.0 12.0 0.00 0.00 0.00 87 1012.0
20260505015640 53 23 3.0 7.0 0.00 0.00 0.00 87 1011.8
20260505014620 53 23 2.0 3.0 0.00 0.00 0.00 87 1011.8
20260505013619 53 0 4.0 10.0 0.00 0.00 0.00 87 1012.0
20260505012619 53 0 3.0 6.0 0.00 0.00 0.00 87 1012.0
20260505011630 53 45 3.0 5.0 0.00 0.00 0.00 87 1011.8
20260505010630 53 0 3.0 5.0 0.00 0.00 0.00 86 1011.8
20260505005639 53 0 4.0 6.0 0.00 0.00 0.00 86 1012.0
20260505004619 52 45 3.0 5.0 0.00 0.00 0.00 86 1012.0
20260505003619 53 45 3.0 6.0 0.00 0.00 0.00 86 1012.2
20260505002630 53 0 1.0 3.0 0.00 0.00 0.00 86 1012.4
20260505001650 52 0 4.0 7.0 0.00 0.00 0.00 86 1012.6
20260505000630 52 23 4.0 7.0 0.00 0.00 0.00 86 1012.5
20260504235620 53 0 4.0 6.0 0.00 0.00 0.00 86 1012.7
20260504234631 53 23 6.0 9.0 0.00 0.00 0.00 86 1012.8
20260504233619 53 338 4.0 9.0 0.00 0.00 0.00 87 1012.8
20260504232639 53 90 2.0 4.0 0.00 0.00 0.00 86 1012.9
20260504231630 53 23 5.0 9.0 0.00 0.00 0.00 86 1013.0
20260504230710 53 23 5.0 7.0 0.00 0.00 0.00 86 1013.0
20260504225701 53 45 4.0 6.0 0.00 0.00 0.00 86 1013.0
20260504224630 53 23 8.0 11.0 0.00 0.00 0.00 86 1012.9
20260504223620 53 45 4.0 7.0 0.00 0.00 0.00 87 1013.1
20260504222640 54 23 10.0 13.0 0.00 0.00 0.00 87 1013.0
20260504221620 54 23 4.0 7.0 0.00 0.00 0.00 87 1013.0
20260504220620 54 0 5.0 8.0 0.00 0.00 0.00 87 1013.1
20260504215620 54 23 5.0 8.0 0.00 0.00 0.00 87 1013.1
20260504214650 54 23 6.0 11.0 0.00 0.00 0.00 87 1013.2
20260504213640 54 23 6.0 10.0 0.00 0.00 0.00 87 1013.3
20260504212619 54 68 5.0 9.0 0.00 0.00 0.00 87 1013.5
20260504211640 54 338 4.0 9.0 0.00 0.00 0.00 87 1013.5
20260504210702 54 23 6.0 11.0 0.00 0.00 0.00 87 1013.6
20260504205630 54 45 3.0 4.0 0.00 0.00 0.00 88 1013.6
20260504204721 54 68 2.0 4.0 0.00 0.00 0.00 87 1013.7
20260504203652 54 0 4.0 7.0 0.00 0.00 0.00 88 1013.7
20260504202711 54 23 3.0 8.0 0.00 0.00 0.00 88 1013.6
20260504201619 54 45 3.0 6.0 0.00 0.00 0.00 88 1013.5
20260504200619 54 23 4.0 8.0 0.00 0.00 0.00 88 1013.4
20260504195619 54 23 6.0 12.0 0.00 0.00 0.00 88 1013.4
20260504194619 54 45 4.0 8.0 0.00 0.00 0.00 88 1013.3
20260504193620 54 0 4.0 10.0 0.00 0.00 0.00 88 1013.1
20260504192650 54 0 4.0 8.0 0.00 0.00 0.00 88 1012.9
20260504191631 54 45 4.0 9.0 0.00 0.00 0.00 88 1012.8
20260504190630 54 0 6.0 10.0 0.00 0.00 0.00 88 1012.7
20260504185619 54 23 5.0 10.0 0.00 0.00 0.00 87 1012.5
20260504184826 54 23 3.0 9.0 0.00 0.00 0.00 88 1012.5
20260504183830 54 0 6.0 9.0 0.00 0.00 0.00 88 1012.6